Regional Weather Roundup
Issued by NWS

Home | Current Version | Previous Version | Graphics & Text | Print | Product List | Glossary On
Versions: 1 2 3 4 5 6 7 8 9 10 11 12 13 14 15 16 17 18 19 20 21 22 23 24 25 26 27 28 29 30 31 32 33 34 35 36 37 38 39 40 41 42 43 44 45 46 47 48 49 50
000
ASUS43 KDTX 161710
RWRMI
MICHIGAN HOURLY REGIONAL WEATHER ROUNDUP
NATIONAL WEATHER SERVICE DETROIT/PONTIAC MI
1200 PM EST MON JAN 16 2017

NOTE: "FAIR" INDICATES FEW OR NO CLOUDS BELOW 12,000 FEET WITH NO
SIGNIFICANT WEATHER AND/OR OBSTRUCTION TO VISIBILITY.

MIZ047>049-052>055-059>063-066>070-074>076-081>083-161800-
SOUTHEAST LOWER MICHIGAN

CITY           SKY/WX    TMP DP  RH WIND       PRES   REMARKS
ADRIAN         MIX PCPN  31  29  92 E5        30.31F FOG     WCI  26
ALMA           CLOUDY    31  24  75 CALM      30.29F
ANN ARBOR      CLOUDY    32  27  81 E3        30.31F HAZE
BAD AXE        CLOUDY    30  25  82 S6        30.30F WCI  24
CARO           CLOUDY    31  27  86 CALM      30.29F
DETROIT CITY   FRZ RAIN  31  28  89 E3        30.33F
DETROIT        CLOUDY    33  28  81 NE3       30.33F HAZE
FLINT          CLOUDY    31  24  75 S3        30.30F
GROSSE ILE     CLOUDY    33  29  86 CALM      30.31F FOG
HILLSDALE      CLOUDY    32  30  93 E7        30.26F FOG     WCI  26
HOWELL         LGT SNOW  31  27  85 SE5       30.28F WCI  26

CITY           SKY/WX    TMP DP  RH WIND       PRES   REMARKS
JACKSON        LGT RAIN  33  28  81 SE8       30.28F WCI  26
LAMBERTVILLE   LGT SNOW  34  29  80 CALM      30.31F
LANSING        FRZ RAIN  31  24  75 S6        30.29F WCI  25
LAPEER         NOT AVBL
MASON          MIX PCPN  31  29  91 S3        30.28F
MONROE         CLOUDY    33  30  88 E8        30.32F FOG     WCI  26
MT. CLEMENS    MIX PCPN  32  30  93 S6        30.31F WCI  26
PONTIAC        FRZ RAIN  29  25  85 S7        30.30F FOG     WCI  22
PORT HOPE        N/A     32  24  72 W5        30.28F WCI  27
PORT HURON     CLOUDY    30  28  93 S5        30.32F FOG     WCI  25
TRI CITIES     CLOUDY    29  25  85 S5        30.30F FOG     WCI  24
MIDLAND        FAIR      29  24  80 CALM      30.30F HAZE
TROY           LGT SNOW  30  26  82 CALM      30.34F
SAGINAW HB     CLOUDY    32  23  69 S5        30.30F WCI  27
$$
MIZ043>046-050>051-056>058-064>065-071>073-077>080-161800-
SOUTHWEST LOWER MICHIGAN

CITY           SKY/WX    TMP DP  RH WIND       PRES   REMARKS
BATTLE CREEK   CLOUDY    32  27  81 SE9       30.27F WCI  24
BENTON HARBOR  LGT RAIN  36  31  82 E7        30.24F WCI  30
BIG RAPIDS     CLOUDY    26  23  85 CALM      30.26F FOG
COLDWATER      LGT RAIN  35  31  87 SE6       30.27F WCI  30
FREMONT        PTSUNNY   30  23  74 SE3       30.25F
HOLLAND        CLOUDY    32  29  88 E7        30.26F WCI  26
GRAND RAPIDS   FRZ RAIN  31  26  82 SE5       30.27F WCI  26
IONIA          MIX PCPN  31  25  80 S6        30.27F WCI  25
KALAMAZOO      FRZ DRZL  34  27  75 SE8       30.26F WCI  27
LUDINGTON      CLOUDY    32  30  94 CALM      30.26F FOG
MARSHALL       LGT RAIN  33  29  83 CALM      30.28F
MOUNT PLEASANT CLOUDY    30  26  83 CALM      30.28F HAZE
MUSKEGON       FRZ RAIN  32  27  81 SE7       30.27F WCI  26
SOUTH HAVEN    LGT SNOW  33  31  94 E6        30.24F WCI  27
$$
MIZ016>042-161800-
NORTHERN LOWER MICHIGAN

CITY           SKY/WX    TMP DP  RH WIND       PRES   REMARKS
ALPENA         CLOUDY    31  22  69 SW7       30.25F WCI  24
BEAVER ISLAND  CLOUDY    34  27  75 W10G18    30.23S WCI  26
BELLAIRE       MOSUNNY   24  24  98 CALM      30.27F FOG
CADILLAC       CLOUDY    28  26  94 SW3       30.22F FOG
CHARLEVOIX     CLOUDY    35  29  79 SW9       30.26F WCI  27
FRANKFORT      MOSUNNY   30  27  91 CALM      30.26F FOG
GAYLORD        CLOUDY    28  24  85 SW7       30.23F FOG     WCI  21
GRAYLING       CLOUDY    22  19  91 CALM      30.25F FOG
HARBOR SPRINGS CLOUDY    33  28  79 SW12      30.23F WCI  25
HOUGHTON LAKE  CLOUDY    24  22  91 N3        30.26F FOG
MANISTEE       CLOUDY    27  25  92 E5        30.26F FOG     WCI  22
OSCODA         CLOUDY    28  24  84 SW3       30.28F FOG
PELLSTON       CLOUDY    33  26  75 S6        30.22F WCI  28
ROGERS CITY    CLOUDY    34  23  64 SW7       30.23S WCI  28
TRAVERSE CITY  CLOUDY    33  26  75 S6        30.26F WCI  28
$$
MIZ007>008-015-161800-
EASTERN UPPER MICHIGAN

CITY           SKY/WX    TMP DP  RH WIND       PRES   REMARKS
KINROSS        CLOUDY    35  24  64 W9        30.20S WCI  28
MACKINAC ISLAN CLOUDY    32  28  83 SW9G20    30.20F WCI  24
NEWBERRY       CLOUDY    26  17  68 SW6       30.18F WCI  19
S. S. MARIE    MOSUNNY   30  22  72 W6        30.19F WCI  24
$$
MIZ004>006-011>014-085-161800-
CENTRAL UPPER MICHIGAN

CITY           SKY/WX    TMP DP  RH WIND       PRES   REMARKS
MANISTIQUE     CLOUDY    29  20  70 SW6       30.21F WCI  22
ESCANABA       CLOUDY    28  17  63 SW5       30.22F WCI  23
SAWYER-GWINN   SUNNY     23  16  74 S5        30.16S WCI  17
$$
MIZ001>003-009>011-084-161800-
WESTERN UPPER MICHIGAN

CITY           SKY/WX    TMP DP  RH WIND       PRES   REMARKS
IRON MOUNTAIN  CLOUDY    27  10  49 CALM      30.16F
HOUGHTON       SUNNY     30  21  69 W14       30.12F WCI  19
COPPER HARBOR    N/A     36  27  69 N7        30.13F WCI  30
IRONWOOD       SUNNY     28  17  63 CALM      30.15S
$$

ABBREVIATIONS USED IN REMARKS
   TC - TEMPERATURE IN CELSIUS
  WCI - WIND CHILL INDEX
   HX - HEAT INDEX
  VSB - VISIBILITY





USA.gov is the U.S. government's official web portal to all federal, state and local government web resources and services.